Location: Ajisawe
(8.4333°N, 4.3833°E)
Time: 23:39:40
(UTC+00:00)

Vanguard 1 Rocket - Pass Details

Date: 28 April 2021
Orbit: 652 x 4224 km, 34.3° (Epoch: 10 May)

Event Time Altitude Azimuth Distance (km) Brightness Sun altitude
Exits shadow 02:34:34 11° 190° (S) 7,137 11.6 -41.2°
Maximum altitude 02:47:34 16° 158° (SSE) 6,855 11.7 -38.3°
Drops below altitude 10° 03:00:57 10° 125° (SE) 7,097 12.2 -35.3°
Sets 03:09:49 0° 106° (ESE) 7,597 12.7 -33.3°
